Location: Brno
(49.2000°N, 16.6333°E)
Time: 06:57:00
(UTC+01:00)

ISS - Pass Details

Date: 29 January 2019
Orbit: 403 x 411 km, 51.6° (Epoch: 18 February)

Event Time Altitude Azimuth Distance (km) Brightness Sun altitude
Rises 19:53:07 0° 283° (WNW) 2,340 1.2 -30.7°
Reaches altitude 10° 19:55:13 10° 288° (WNW) 1,479 -0.1 -31.1°
Enters shadow 19:55:29 12° 288° (WNW) 1,373 -0.3 -31.1°
